Weather History for Lawrence, MA

Change the Weather History Date:

Wednesday, January 2, 2013

  Actual Average Record
Temperature  
Mean Temperature 18 °F -  
Max Temperature 27 °F 37 °F 66 °F (2000)
Min Temperature 8 °F 19 °F -6 °F (1957)
Degree Days  
Heating Degree Days 46    
Moisture  
Dew Point 4 °F    
Average Humidity 52    
Maximum Humidity 64    
Minimum Humidity 43    
Precipitation  
Precipitation 0.00 in - - ()
Sea Level Pressure  
Sea Level Pressure 29.99 in    
Wind  
Wind Speed 8 mph (West)    
Max Wind Speed 17 mph    
Max Gust Speed 26 mph    
Visibility 10 miles    
Events      
Averages and records for this station are not official NWS values.
T = Trace of Precipitation, MM = Missing Value Source: NWS Daily Summary

Daily Weather History Graph

Daily Weather History Graph

Search for Another Location

Airport:

Trip Planner

Search our weather history database for the weather conditions in past years. The results will help you decide how hot, cold, wet, or windy it might be!

Date:

Astronomy

Jan. 02, 2013 Rise Set
Actual Time 7:14 AM EST 4:22 PM EST
Civil Twilight 6:43 AM EST 4:54 PM EST
Nautical Twilight 6:07 AM EST 5:30 PM EST
Astronomical Twilight 5:33 AM EST 6:04 PM EST
Moon 10:00 PM EST (1/2) 9:47 AM EST (1/2)
Length of Visible Light 10h 11m
Length of Day
9h 07m
Waning Gibbous, 75% of the Moon is Illuminated
Jan 2
Waning Gibbous
Jan 4
Last Quarter
Jan 11
New
Jan 18
First Quarter
Jan 26
Full

Hourly Weather History & Observations

Time (EST) Temp. Windchill Dew Point Humidity Pressure Visibility Wind Dir Wind Speed Gust Speed Precip Events Conditions
12:54 AM 17.1 °F 8.7 °F 1.0 °F 50% 29.94 in 10.0 mi WNW 5.8 mph - N/A   Clear
1:54 AM 16.0 °F 5.3 °F 1.0 °F 52% 29.96 in 10.0 mi West 8.1 mph - N/A   Clear
2:54 AM 16.0 °F 6.3 °F 1.9 °F 54% 29.96 in 10.0 mi West 6.9 mph - N/A   Clear
3:54 AM 15.1 °F 5.2 °F 1.9 °F 56% 29.95 in 10.0 mi WSW 6.9 mph - N/A   Clear
4:54 AM 15.1 °F 6.4 °F 1.0 °F 54% 29.95 in 10.0 mi West 5.8 mph - N/A   Clear
5:54 AM 14.0 °F 8.2 °F 1.0 °F 56% 29.95 in 10.0 mi SW 3.5 mph - N/A   Clear
6:54 AM 14.0 °F 6.5 °F 1.4 °F 57% 29.94 in 10.0 mi WSW 4.6 mph - N/A   Clear
7:54 AM 14.0 °F 5.1 °F 3.9 °F 64% 29.94 in 10.0 mi SSW 5.8 mph - N/A   Mostly Cloudy
8:54 AM 18.0 °F 7.7 °F 6.1 °F 60% 29.94 in 10.0 mi WSW 8.1 mph - N/A   Overcast
9:54 AM 21.9 °F 10.4 °F 7.0 °F 53% 29.94 in 10.0 mi WSW 11.5 mph 20.7 mph N/A   Overcast
10:54 AM 24.1 °F 13.7 °F 10.0 °F 55% 29.94 in 10.0 mi West 10.4 mph 19.6 mph N/A   Mostly Cloudy
11:54 AM 27.0 °F 16.7 °F 10.0 °F 49% 29.91 in 10.0 mi West 11.5 mph 26.5 mph N/A   Clear
12:54 PM 27.0 °F 17.3 °F 10.9 °F 51% 29.91 in 10.0 mi WNW 10.4 mph 19.6 mph N/A   Overcast
1:54 PM 27.0 °F 17.3 °F 10.0 °F 49% 29.93 in 10.0 mi WNW 10.4 mph 24.2 mph N/A   Overcast
2:54 PM 27.0 °F 14.3 °F 10.9 °F 51% 29.96 in 10.0 mi WNW 17.3 mph 23.0 mph N/A   Mostly Cloudy
3:54 PM 26.1 °F 13.1 °F 6.1 °F 43% 29.98 in 10.0 mi WNW 17.3 mph 23.0 mph N/A   Scattered Clouds
4:54 PM 24.1 °F 18.2 °F 9.0 °F 53% 30.02 in 10.0 mi NW 4.6 mph - N/A   Partly Cloudy
5:54 PM 21.9 °F 11.7 °F 7.0 °F 53% 30.04 in 10.0 mi NW 9.2 mph - N/A   Clear
6:54 PM 19.9 °F 12.1 °F 5.0 °F 52% 30.05 in 10.0 mi NW 5.8 mph - N/A   Clear
7:54 PM 18.0 °F 6.1 °F 1.0 °F 48% 30.07 in 10.0 mi North 10.4 mph - N/A   Clear
8:54 PM 15.1 °F 2.5 °F -0.0 °F 51% 30.09 in 10.0 mi NW 10.4 mph - N/A   Clear
9:54 PM 12.9 °F 1.6 °F -2.9 °F 49% 30.11 in 10.0 mi WNW 8.1 mph - N/A   Clear
10:54 PM 10.0 °F -5.2 °F -7.1 °F 46% 30.12 in 10.0 mi NW 12.7 mph 18.4 mph N/A   Clear
11:54 PM 8.1 °F -4.3 °F -8.0 °F 48% 30.13 in 10.0 mi WNW 8.1 mph 20.7 mph 0.00 in   Clear